www.pogodaiklimat.ru
ПОГОДА в Клинтоне
Время
и дата
00:53 05.02
01:53 05.02
02:53 05.02
03:53 05.02
04:53 05.02
05:53 05.02
06:53 05.02
07:53 05.02
08:53 05.02
09:53 05.02
10:53 05.02
11:53 05.02
12:53 05.02
13:53 05.02
14:53 05.02
15:53 05.02
16:53 05.02
17:53 05.02
18:53 05.02
19:53 05.02
20:53 05.02
21:53 05.02
22:53 05.02
23:53 05.02
00:53 06.02
01:53 06.02
02:53 06.02
03:53 06.02
04:53 06.02
05:53 06.02
06:53 06.02
07:53 06.02
08:53 06.02
09:53 06.02
10:53 06.02
11:53 06.02
12:53 06.02
13:53 06.02
14:53 06.02
15:53 06.02
16:53 06.02
17:53 06.02
18:53 06.02
19:53 06.02
20:53 06.02
21:27 06.02
21:42 06.02
21:53 06.02
Ветер
(напр.,м/с)
Видим. Явления Облачность Т
(С)
Тd
(С)
f
(%)
Тe
(С)
Тes
(С)
Комфортность P
(гПа)
Po
(гПа)
Тmin
(С)
Tmax
(С)
R
(мм)
R24
(мм)
S
(см)
СЗ 3 16 км ясно +5.6 -3.3 53 +3 +3 1019.9 951.4
С 4 16 км ясно +1.7 -5.0 61 -3 -3 1020.0 951.4
С 4 16 км ясно +0.6 -5.0 66 -4 -4 1019.9 951.0
С 4 16 км ясно 0.0 -5.0 69 -5 -5 1019.7 951.0
С 3 16 км ясно +0.6 -5.0 66 -4 -4 1019.9 951.0
С 4 16 км ясно 0.0 -5.0 69 -5 -5 1020.6 951.4 -1.1 +5.6
С 5 16 км ясно -1.7 -5.0 78 -8 -8 1020.8 951.4
С 4 16 км ясно -1.1 -5.0 75 -7 -7 1021.2 951.4
С 4 16 км ясно +2.2 -2.8 69 -2 -2 1021.3 952.0
С 4 16 км ясно +6.1 -1.1 60 +3 +4 1021.6 952.3
СВ 2 16 км ясно +10.0 -1.1 46 +9 +14 1021.5 952.6
ЮВ 3 16 км ясно +12.2 -1.1 40 +11 +17 1021.1 952.0 -2.2 +12.2
В 4 16 км ясно +13.9 -0.6 37 +13 +18 1019.5 950.7
В 5 16 км ясно +15.0 0.0 36 +14 +18 1018.6 949.8
ЮВ 6 16 км ясно +16.1 +1.1 36 +15 +18 1017.6 948.8
ЮВ 7 16 км ясно +16.1 +1.7 38 +15 +16 1016.7 948.2
ЮВ 6 16 км ясно +15.6 +3.9 46 +14 +15 1016.2 947.6
ЮВ 5 16 км ясно +13.3 +4.4 55 +12 +12 1016.4 947.6 +12.2 +16.1
Ю 5 16 км ясно +6.7 +2.8 76 +3 +3 1017.0 947.6
ЮВ 4 16 км ясно +6.1 +2.8 79 +2 +2 1017.1 947.6
ЮВ 4 16 км ясно +6.7 +2.8 76 +3 +3 1016.3 947.3
ЮВ 4 16 км ясно +3.3 +1.1 85 -1 -1 1015.4 946.6
ЮВ 4 16 км ясно +7.2 +3.3 76 +4 +4 1014.4 946.0
ЮВ 6 16 км ясно +6.7 +2.8 76 +2 +2 1013.2 945.0 +2.8 +12.8
Ю 7 16 км ясно +7.2 +3.9 80 +3 +3 1012.0 944.1
Ю 7 16 км ясно +6.7 +3.9 82 +2 +2 1011.2 943.5
Ю 8 16 км ясно +7.2 +4.4 82 +2 +2 1010.3 942.8
Ю 8 16 км ясно +7.8 +4.4 79 +3 +3 1009.5 942.2
Ю 9 16 км ясно +7.2 +3.9 80 +2 +2 1009.1 941.6
Ю 8 16 км ясно +6.1 +2.8 79 +1 +1 1009.3 941.6 +6.1 +7.8
Ю 8 16 км ясно +5.6 +2.8 82 0 0 1009.6 941.3
Ю 8 16 км ясно +6.1 +2.8 79 +1 +1 1009.6 941.3
Ю 9 16 км ясно +7.8 +3.9 76 +3 +3 1009.1 940.9
Ю 8 16 км ясно +10.6 +5.0 68 +7 +7 1009.4 941.3
ЮЗ 9 16 км ясно +12.8 +4.4 57 +10 +10 1009.1 941.3
Ю 10 16 км ясно +13.9 +5.0 55 +11 +12 1008.8 941.3 +5.6 +13.9
Ю 8 16 км ясно +14.4 +5.6 55 +12 +14 1007.8 940.3
Ю 9 16 км ясно +16.7 +6.1 50 +15 +16 1007.0 939.7
Ю 6 16 км ясно +17.8 +7.8 52 +17 +20 1006.8 939.4
Ю 6 16 км ясно +20.0 +7.2 43 +21 +23 комфорт 1006.8 939.7
ЮВ 5 16 км ясно +18.9 +7.8 48 +19 +21 1007.3 940.0
ЮВ 4 16 км ясно +15.0 +6.7 58 +14 +14 1008.2 940.6 +13.9 +20.6
С 8
{12}
16 км ясно +14.4 +1.1 40 +12 +12 1010.1 942.2
С 8
{11}
16 км 2/0 3000 m
[Ac]
+11.7 -1.7 39 +9 +9 1011.4 943.2
С 9 16 км 10/8 1950 m
[Ac]
+11.7 -0.6 43 +9 +9 1011.9 943.8
С 8 16 км гроза 10/10 1500 m
[Cb]
+11.1 0.0 46 +8 +8 944.4
С 9
{12}
16 км 10/10 1500 м +11.1 0.0 46 +8 +8 945.0
С 10 16 км 10/10 1500 м +10.6 0.0 48 +7 +7 1012.9 945.0
Местоположение метеостанции Clinton-Sherman Airport: широта 35.3567 долгота -99.2036 высота над уровнем моря 585 м.
В архиве по умолчанию представлена погода в Клинтоне за последние 1-2 суток. Обновление информации о фактической погоде в базе происходит ежечасно! Архивные данные за месяц целиком и за предыдущие месяцы Вы можете получить, выбрав интересующий диапазон дат из раскрывающегося списка и нажав кнопку "Ввод!".
Внимание! Архив погоды МЕТАР в базе сайта по станциям, не включенным в климатический монитор, хранится не более 60 дней. Нет смысла пытаться выбрать более раннюю дату.
*Определитесь, кто Вы:
Внимание! Время в таблицах - местное (без учета летнего времени). Для получения всемирного времени необходимо вычесть поправку, которая равна -6 ч.
Смотрите также архив погоды в соседних городах и на ближайших метеорологических станциях:
Партнеры нашего сайта:      
Пояснения к столбцам:
  • Ветер - указаны скорость ветра в м/с - средняя за 10 мин, порывы в срок и между сроками (в фигурных скобках) и направление, откуда дует ветер: С - северный,
  • СВ - северо-восточный, В - восточный, ЮВ - юго-восточный, Ю - южный, ЮЗ - юго-западный, З - западный, СЗ - северо-западный.
  • Видимость - горизонтальная дальность видимости в метрах или километрах. При видимости от 1 до 10 км при отсутствии осадков обычно наблюдается дымка, при ухудшении видимости до 1 км и менее - туман. В сухую погоду видимость может ухудшаться дымом, пылью или мглою.
  • Явления - указаны атмосферные явления, наблюдавшиеся в срок или в последний час перед сроком; фигурными скобками обозначены явления, наблюдавшиеся между сроками (за 1-3 часа до срока); квадратными скобками обозначены град или гололедные отложения с указанием их диаметра в мм.
  • Облачность - указаны через наклонную черту общая и нижняя облачность в баллах и высота нижней границы облаков в метрах; квадратными скобками обозначены формы облаков: Ci - перистые, Cs - перисто-слоистые, Cc - перисто-кучевые, Ac - высококучевые, As - высокослоистые, Sc - слоисто-кучевые, Ns - слоисто-дождевые, Cu - кучевые, Cb - кучево-дождевые. Подробнее классификацию облаков см. в Атласе облаков (PDF).
  • T - Температура воздуха - температура, измеренная на высоте 2 м над землей.
  • Td - Температура точки росы - температура, при понижении до которой содержащийся в воздухе водяной пар достигнет насыщения.
  • f - Относительная влажность воздуха - влажноcть воздуха, измеренная на высоте 2 м над землей.
  • Te - Эффективная температура - температура, которую ощущает одетый по сезону человек в тени. Характеристика душности погоды. При расчете учитывается влияние влажности воздуха и скорости ветра на теплоощущения человека.
  • Tes - Эффективная температура на солнце - температура, которую ощущает человек, с поправкой на солнечный нагрев. Характеристика знойности погоды. Зависит от высоты солнца над горизонтом, облачности и скорости ветра. Ночью, в пасмурную погоду, а также при ветре 12 м/с и более поправка равна нулю.
  • P - Атмосферное давление - приведенное к уровню моря атмосферное давление.
  • Po - Атмосферное давление - измеренное на уровне метеостанции атмосферное давление.
  • Tmin - Минимальная температура - минимум температуры воздуха на высоте 2 м над землей.
  • Tmax - Максимальная температура - максимум температуры воздуха на высоте 2 м над землей.
  • R - Количество осадков - Количество выпавших осадков за период времени, мм. При наведении курсора мыши на число - период времени, за который выпало указанное количество осадков.
  • R24 - Количество осадков - Количество выпавших осадков за 24 часа, мм.
  • S - Снежный покров - Высота снежного покрова, см. При наведении курсора мыши на число - состояние снежного покрова и степень покрытия местности в баллах.